Location: Unspecified
(0.0000°N, 0.0000°E)
Time: 23:26:43
(UTC+00:00)

Tiangong - Pass Details

Date: 18 February 2024
Orbit: 375 x 388 km, 41.5° (Epoch: 20 February)

Event Time Altitude Azimuth Distance (km) Brightness Sun altitude
Rises 20:07:07 0° 224° (SW) 2,225 2.6 -27.7°
Reaches altitude 10° 20:09:11 10° 223° (SW) 1,373 1.3 -28.2°
Enters shadow 20:09:24 12° 223° (SW) 1,281 1.1 -28.2°
